Location: Clarks Summit,Pa.
(41.5000°N, 75.6000°W)
Time: 13:47:03
(UTC-05:00)

BlueWalker 3 - Pass Details

Date: 30 November 2022
Orbit: 499 x 517 km, 53.2° (Epoch: 28 January)

Event Time Altitude Azimuth Distance (km) Brightness Sun altitude
Rises 17:50:51 0° 289° (WNW) 2,630 6.5 -14.1°
Reaches altitude 10° 17:53:46 10° 312° (NW) 1,739 5.1 -14.7°
Maximum altitude 17:56:15 16° 351° (N) 1,402 4.1 -15.1°
Enters shadow 17:57:49 13° 18° (NNE) 1,542 4.1 -15.4°
